THORAD AGENA D DEB, 4651

Orbit data source: Space-Track

THORAD AGENA D DEB, 4651 is space debris in SSO originally from a launch on Wed, 08 Apr 1970 UTC launched from the Air Force Western Test Range (AFWTR). Debris objects in space refer to the collection of defunct objects orbiting the Earth. Examples of debris include non-operational satellites, rocket bodies, and fragments generated from explosions, collisions, or faulty payload assembly.

Loading next visibility...
Identifier
4651, 1970-025AK
Orbit
SSO
Country
Flag of USUS
Related business
Manufacturer
Unknown
Mission
Spacecraft
Bus & Motor
Unknown
Mass
Unknown
Launch date (UTC)
1970-04-08 (56 years ago)
Launch vehicle
Unknown
Launch site
Air Force Western Test Range (AFWTR)
Object type
Payload
Rocket body
Debris
Shape & HBR
Unknown shape, 0.2 m
Radar Cross Section
Small (<0.1 m²)

Expand to show TLE details & history
Last TLE update: 15 hours ago

TLE from 15 hours ago
0 THORAD AGENA D DEB
1 04651U 70025AK  25342.75058174  .00002367  00000-0  15618-2 0  9994
2 04651 100.1334 269.9909 0042072 236.1868 123.5285 14.02466894809022
Epoch: 2025-12-08T18:00Z
TLE epoch observation values (Epoch: 2025-12-08T18:00:50.262Z)
Latitude
-0.00002°
Longitude
-77.96365°
Altitude
905.078 km
Speed
7.391 km/s
True Right ascension
17h 59m 57s
True Declination
0° 00' 00"
Sunlit
Object was in daylight at epoch
Visualization orbit readout
Latitude
Unknown
Longitude
Unknown
Altitude
Unknown
Speed
Unknown
Apparent Right ascension
Unknown
Apparent Declination
Unknown
Sunlit
N/A
Visualization observer readout
Local Sidereal Time
06:49:27
Azimuth
Unknown
Elevation
Unknown
Doppler factor
Unknown
Orbital elements
Apogee altitude
913.067 km
Perigee altitude
851.973 km
Semi-major axis
7,260.657 km
Eccentricity
0.00421
Inclination
100.1334°
RAAN
269.9909°
Arg. of periapsis
236.1868°
True anomaly
123.92922°
Mean anomaly
123.5285°
Eccentric anomaly
123.72898°
Mean motion
3.50816 °/min
Orbital period
102.62 mins
BSTAR
0.0015618
Loading maneuver chart data...
Computing Atmospheric mass density...

Documentation

Showing up to 5 results
|